Regional Weather Roundup
Issued by NWS Newport/Morehead, NC

Current Version | Previous Version | Graphics & Text | Print | Product List | Glossary Off
Versions: 1 2 3 4 5 6 7 8 9 10 11 12 13 14 15 16 17 18 19 20 21 22 23 24 25 26 27 28 29 30 31 32 33 34 35 36 37 38 39 40 41 42 43 44 45 46 47 48 49 50

000
ASUS42 KMHX 211722
RWRMHX
WEATHER ROUNDUP FOR EASTERN NORTH CAROLINA
NATIONAL WEATHER SERVICE NEWPORT/MOREHEAD CITY NC
100 PM EDT SUN SEP 21 2014

NOTE: "FAIR" INDICATES FEW OR NO CLOUDS BELOW 12,000 FEET
WITH NO SIGNIFICANT WEATHER AND/OR OBSTRUCTIONS TO VISIBILITY

NCZ015>017-031-032-045>047-102-103-211800-
NORTH COAST

CITY           SKY/WX    TMP DP  RH WIND       PRES   REMARKS
EDENTON        CLOUDY    76  69  77 NW13      29.79F
ELIZABETH CITY CLOUDY    76  69  79 NW12      29.77F
KITTY HAWK     MOSUNNY   76  70  82 N10G20    29.73F
MANTEO         MOSUNNY   76  70  80 N15G25    29.74F

$$

NCZ045>047-081-094-103-104-211800-
CENTRAL COAST

CITY           SKY/WX    TMP DP  RH WIND       PRES   REMARKS
FRISCO         PTSUNNY   76  71  85 NW12G23   29.75R
SWANQUARTER      N/A     79 N/A N/A NW16      29.74S

$$

NCZ095-097-098-100-101-211800-
SOUTHERN COAST

CITY           SKY/WX    TMP DP  RH WIND       PRES   REMARKS
BEAUFORT       PTSUNNY   79  70  74 NW15      29.80F
CEDAR ISLAND     N/A     77 N/A N/A NW17      29.82S
JACKSONVILLE   PTSUNNY   79  65  62 NW16      29.84S
NEWPORT        NOT AVBL
PINEY ISLAND   MOSUNNY   80  69  69 NW14G23   29.78F
WILMINGTON     MOSUNNY   80  63  55 NW14G23   29.87F


$$

NCZ011>013-027>030-043-044-078>080-089-090>093-098-211800-
COASTAL PLAIN

CITY           SKY/WX    TMP DP  RH WIND       PRES   REMARKS
AHOSKIE        MOSUNNY   79  61  54 NW5       29.80F
CLINTON        MOSUNNY   82  64  54 W7        29.87F
ELIZABETHTOWN  MOSUNNY   79  59  49 W8        29.88F
GOLDSBORO      SUNNY     81  66  61 W8        29.83F
GREENVILLE     MOSUNNY   77  63  61 NW8       29.85F
HAVELOCK       PTSUNNY   81  68  64 NW15G22   29.82S
KENANSVILLE    MOSUNNY   81  60  49 NW8       29.86F
KINSTON        FAIR      79  63  57 NW9       29.85F
NEW BERN       PTSUNNY   82  68  62 N8        29.83F
RICHLANDS      PTSUNNY   75  63  64 W7        29.85F
ROANOKE RAPIDS NOT AVBL
ROCKY MOUNT    SUNNY     81  63  54 W12       29.84F
WASHINGTON     PTSUNNY   77  64  65 NW8       29.81F
WHITEVILLE     MOSUNNY   80  62  52 W5        29.88F

$$

AMZ130-135-150-152-154-156-158-170-250-252-270-ANZ085-086-088-633-658-670-211800-
MARINE OBSERVATIONS

STATION/POSITION TIME  TEMP    WIND        PRES    WAVE   SWELL
                       AIR SEA DIR/SP/G            HT/PER HT/PER
                 (UTC) (F)     (DEG/KT/KT) (MB)    (FT/S) (FT/S)
CHESAPEAKE LIGHT 1700   72     340/ 14/ 16 1008.0
BUOY 44014       1700   74 72  350/ 21/ 25 1004.9    8/ 8   5/ 8
DUCK             1700   73 74  340/ 19/ 22 1006.0
2E DUCK          1700                        N/A     6/ 9   2/11
OREGON INLET     1700   76 74  340/ 17/ 24 1006.6
BUOY 44095       1700      74                N/A     8/ 9   2/11
20E OREGON INLET NOT AVBL
HATTERAS CG      1600   74 74  330/ 22/ 26 1007.7
DIAMOND BUOY     1600   76     320/ 25/ 29 1005.7    9/ 9   7/ 9
CAPE LOOKOUT     1700   76     320/ 13/ 16 1008.9
BEAUFORT LAB     1700   78 75  350/  9/ 16 1008.5
30 SE NEW RIVER  1700   77 83  310/ 16/ 19 1010.3    5/ 8   3/ 8
5 SE WRIGHTSVILL 1700   73 79  330/ 16/ 19   N/A
BUOY 41002       1559   80 81  270/ 21/ 27 1011.6   11/ 8
BUOY 41004       1700   77 81  320/ 14/ 17 1013.6    5/ 7   3/ 7

$$


USA.gov is the U.S. government's official web portal to all federal, state and local government web resources and services.